Location: ?????????
(44.3141°N, 134.9090°E)
Time: 07:34:46
(UTC+00:00)

Daily predictions for brighter satellites

Satellite Brightness Start Highest point End
(mag) Time Altitude Azimuth Time Altitude Azimuth Time Altitude Azimuth
USA 290 3.8 12:03:45 20° ENE 12:03:45 20° ENE 12:05:26 10° NE
ISS -1.4 12:03:47 10° NW 12:06:31 22° N 12:09:14 10° NE
BREEZE-M DEB 4.0 12:02:11 10° SW 12:06:41 48° SSE 12:12:53 10° ENE
Cosmos 540 Rocket 4.5 12:09:58 25° ESE 12:10:55 26° E 12:15:09 10° NE
Okean-O 3.0 12:08:16 19° S 12:11:19 61° W 12:15:39 10° NNW
USA 186 2.2 12:12:15 31° SSW 12:13:08 45° W 12:15:48 10° NNW
Cosmos 2322 Rocket 2.6 12:08:24 10° NNW 12:13:55 50° ENE 12:16:52 26° ESE
Cosmos 2082 Rocket 4.0 12:10:58 10° WSW 12:16:07 34° NW 12:21:17 10° N
Cosmos 1437 Rocket 2.6 12:14:26 22° SSW 12:16:38 75° WNW 12:20:14 10° N
Cosmos 1758 Rocket 3.8 12:13:45 10° NNW 12:18:09 67° W 12:20:46 23° S
USA 245 4.3 12:23:40 25° S 12:27:18 83° WSW 12:32:55 10° NNW
DELTA 2 R/B (1) 3.8 12:22:56 10° W 12:28:18 49° S 12:30:16 34° SE
Cosmos 1825 Rocket 4.0 12:26:48 10° N 12:31:00 46° ENE 12:32:01 38° ESE
Cosmos 220 Rocket 4.3 12:33:19 13° SW 12:36:47 59° WNW 12:40:50 10° NNE
Cosmos 1953 Rocket 4.5 12:33:34 10° N 12:37:27 31° ENE 12:38:04 30° E
Cosmos 1464 Rocket 3.9 12:35:32 27° S 12:39:02 75° E 12:45:14 10° N
Cosmos 2278 3.7 12:35:01 10° NNW 12:40:44 76° WSW 12:43:14 35° SSE
Ariane Rocket 2.9 12:38:42 36° SSE 12:40:51 86° WSW 12:45:56 10° NNW
Cosmos 1602 Rocket 3.7 12:37:53 10° NNW 12:42:11 66° W 12:43:46 37° SSW
CZ-2C R/B 2.5 12:43:11 54° N 12:43:11 54° N 12:45:28 10° N
Helios 1A 4.4 12:41:32 10° NE 12:43:52 22° ENE 12:43:52 22° ENE
SL-16 R/B 2.6 12:39:21 10° NNW 12:44:53 55° WSW 12:47:30 30° S
Meteor 1-5 Rocket 4.2 12:39:08 10° N 12:44:57 85° E 12:47:32 36° SSE
Cosmos 2058 Rocket 4.2 12:48:22 28° E 12:48:22 28° E 12:51:51 10° NNE
SPOT 3 Rocket 3.9 12:46:40 29° SSW 12:49:08 57° W 12:54:12 10° NNW
Cosmos 1805 3.1 12:48:33 10° NNW 12:51:46 59° W 12:51:50 58° WSW
Cosmos 2098 Rocket 3.4 12:50:24 29° SSW 12:52:44 66° W 12:56:56 10° N
Cosmos 1763 Rocket 3.4 12:51:43 38° S 12:53:43 72° ESE 12:58:59 10° NNE
Cosmos 1076 Rocket 3.4 12:52:42 10° N 12:56:56 64° E 12:57:22 59° ESE
Cosmos 2151 4.5 12:53:24 10° NNW 12:56:58 29° W 12:58:46 21° SW
CZ-4B R/B 3.6 12:56:33 31° WSW 12:57:05 33° W 13:00:14 10° NNW
Cosmos 1428 Rocket 4.4 12:50:51 10° N 12:57:06 82° E 12:59:33 39° SSE
Cosmos 1092 Rocket 4.4 12:54:17 10° N 13:00:15 48° ENE 13:02:11 37° ESE
Cosmos 990 Rocket 4.0 12:59:58 10° NNW 13:05:08 69° ENE 13:06:21 50° SE
CZ-4B R/B 4.0 13:04:02 33° SSW 13:05:41 46° W 13:10:21 10° NNW
Cosmos 1707 4.2 13:14:41 21° NNE 13:14:41 21° NNE 13:15:50 10° NNE
Cosmos 1606 Rocket 4.2 13:12:36 35° SW 13:14:00 50° WNW 13:18:13 10° N
Cosmos 2333 Rocket 3.2 13:09:10 10° NW 13:14:20 36° WSW 13:16:25 27° SW
Cosmos 2297 Rocket 4.1 13:17:29 15° E 13:17:29 15° E 13:19:36 10° ENE
Cosmos 2034 Rocket 4.0 13:15:08 36° SSW 13:17:56 84° W 13:24:19 10° N
Cosmos 1833 4.3 13:14:52 27° SW 13:18:06 76° WNW 13:23:45 10° NNE
Cosmos 1726 Rocket 3.8 13:21:24 50° WSW 13:21:57 55° W 13:25:56 10° N
Cosmos 2360 Rocket 2.7 13:20:09 10° NW 13:25:37 51° WSW 13:27:02 41° SSW
Cosmos 841 Rocket 4.4 13:27:44 33° E 13:27:44 33° E 13:31:54 10° NE
Cosmos 2322 4.5 13:23:47 10° NNW 13:29:12 43° ENE 13:30:49 35° E
Cosmos 1503 Rocket 4.4 13:25:56 10° NNW 13:30:55 50° WSW 13:31:50 44° SW
Cosmos 1470 4.4 13:28:27 10° NNE 13:30:09 21° NE 13:30:09 21° NE
Helios 1B rocket 3.1 13:34:38 39° NNE 13:34:38 39° NNE 13:37:13 10° N
Cosmos 2279 Rocket 4.2 13:34:01 47° SE 13:35:10 53° E 13:41:13 10° NNE
IKONOS-2 4.4 13:32:01 10° N 13:36:03 80° NW 13:36:03 80° NW
Cosmos-2242 3.0 13:36:33 71° WNW 13:36:33 71° WNW 13:40:35 10° N
Cosmos 2219 Rocket 2.3 13:33:02 10° NNW 13:38:40 64° WSW 13:39:39 54° SSW
Cosmos 1634 Rocket 3.9 13:39:25 54° S 13:40:57 83° E 13:47:11 10° N
NOSS 3-4 (A) 4.4 13:36:27 10° NW 13:43:06 47° WSW 13:45:25 37° SSW
NOSS 3-4 (C) 4.4 13:37:05 10° NW 13:43:46 47° WSW 13:46:04 38° SSW
ISS -2.1 13:40:51 10° NW 13:43:36 33° N 13:43:36 33° N
Cosmos 1536 3.3 13:41:30 10° N 13:44:23 53° NNW 13:44:23 53° NNW
Cosmos 1354 Rocket 4.2 13:40:38 10° NNW 13:45:44 55° WSW 13:46:19 51° SW
Cosmos 372 Rocket 3.9 13:40:45 10° NNW 13:45:51 69° ENE 13:46:17 65° ESE
USA 234 3.7 13:47:26 10° ENE 13:53:01 41° ESE 13:53:01 41° ESE
Cosmos 2026 Rocket 4.4 13:51:00 10° NNW 13:57:12 55° W 13:59:02 42° SW
Cosmos 2322 Rocket 3.6 13:53:02 10° NW 13:57:36 26° WSW 13:58:40 24° WSW
Cosmos 2221 3.1 14:01:54 47° NE 14:01:54 47° NE 14:05:09 10° NNE
ARGOS Delta rocket 4.4 13:56:20 10° NNE 14:01:23 51° E 14:01:23 51° E
Aureole 1 Rocket 4.1 13:56:32 10° NNW 14:02:31 68° WSW 14:03:56 54° SSW
Cosmos 2266 Rocket 4.3 14:00:50 10° N 14:06:41 48° ENE 14:07:43 44° ESE
Cosmos 1975 3.8 14:05:28 10° N 14:07:57 39° NNE 14:07:57 39° NNE
Cosmos 1937 Rocket 3.6 14:04:29 10° NNW 14:09:34 60° ENE 14:09:53 59° E
Meteor 2-9 Rocket 4.0 14:06:26 10° N 14:11:53 80° E 14:12:18 74° SE
CZ-2C R/B 4.0 14:11:56 24° E 14:13:09 27° ENE 14:17:28 10° N
Cosmos 2237 Rocket 3.2 14:11:21 10° NNW 14:16:39 39° NE 14:18:16 32° E
Cosmos 1271 Rocket 4.2 14:19:38 30° NNW 14:19:38 30° NNW 14:21:40 10° N
Helios 1A 4.4 14:16:01 10° N 14:19:22 28° WNW 14:19:34 27° WNW
Cosmos 1980 4.4 14:15:31 10° NNW 14:20:56 45° ENE 14:22:16 38° E
CZ-2C R/B 3.9 14:20:01 10° N 14:24:14 67° NW 14:24:14 67° NW
RESURS DK-1 3.3 14:21:55 10° NNW 14:24:42 43° NW 14:24:42 43° NW
Cosmos 2227 Rocket 3.7 14:26:59 23° E 14:26:59 23° E 14:30:48 10° NE
COSMOS 2428 2.5 14:23:47 10° NNW 14:29:29 77° WSW 14:29:47 75° SSW
Meteor 2-4 Rocket 4.4 14:30:05 37° E 14:30:05 37° E 14:35:07 10° NNE
Cosmos 44 4.2 14:25:11 10° NW 14:29:39 40° W 14:29:39 40° W
GP-B 3.7 14:26:50 10° N 14:30:25 49° NE 14:30:25 49° NE
Cosmos 2263 Rocket 4.0 14:35:43 17° E 14:35:43 17° E 14:38:42 10° ENE
Meteor 1-11 Rocket 3.5 14:31:52 10° N 14:37:32 85° E 14:37:53 79° SE
Meteor 1-10 Rocket 4.2 14:39:19 72° SSW 14:39:58 85° W 14:45:57 10° N
Lacrosse 4 Rocket 2.9 14:45:49 28° NE 14:45:49 28° NE 14:47:57 10° NE
Cosmos 1898 Rocket 3.9 14:39:01 10° NNW 14:43:43 50° W 14:43:43 50° W
CZ-2C R/B 3.3 14:38:30 10° NNE 14:44:15 63° E 14:44:34 61° ESE
ARIANE 5 R/B 3.4 14:45:53 45° WNW 14:45:53 45° WNW 14:49:30 10° NNW
ALOS 2 3.2 14:47:50 49° WNW 14:47:50 49° WNW 14:51:25 10° NNW
NOSS 0 Rocket 3.8 14:44:23 10° NNW 14:50:33 72° WSW 14:51:02 68° SSW
Meteor 1-27 Rocket 3.6 14:53:57 76° SSE 14:54:24 83° E 15:00:10 10° NNE
Cosmos 2297 Rocket 2.1 14:59:14 73° WSW 14:59:44 79° WNW 15:05:24 10° NNE
Cosmos 1814 Rocket 4.4 15:01:29 49° E 15:01:29 49° E 15:06:09 10° NNE
Meteor 2-10 Rocket 4.2 15:00:30 10° N 15:05:56 51° ENE 15:06:50 47° ESE
Cosmos 1766 Rocket 4.0 15:01:39 10° N 15:05:11 58° NNE 15:05:11 58° NNE
ACS3 Solar Sail 2.6 15:02:28 10° NNE 15:07:54 35° E 15:08:44 33° ESE
BREEZE-M R/B 4.0 15:05:47 10° WNW 15:11:54 83° SSW 15:14:20 39° SE
Meteor 2-20 Rocket 4.1 15:13:56 75° SW 15:14:25 83° W 15:20:10 10° N
BlueWalker 3 3.9 15:17:21 22° NE 15:17:21 22° NE 15:18:47 10° NE
Cosmos 1238 Rocket 3.7 15:18:01 49° NNW 15:18:01 49° NNW 15:21:23 10° N
Cosmos 158 Rocket 3.9 15:21:25 86° SSE 15:21:30 87° ESE 15:26:52 10° NNE
Cosmos 1066 Rocket 4.0 15:25:56 78° SE 15:26:12 81° E 15:31:42 10° NNE
Cosmos 1151 Rocket 4.3 15:31:39 32° E 15:31:39 32° E 15:35:09 10° NNE
USA 234 3.5 15:30:17 10° NE 15:36:46 66° NNW 15:40:20 29° WSW
Alouette 2 Rocket 4.1 15:35:42 10° NNW 15:39:03 56° WNW 15:39:03 56° WNW
Cosmos 1340 Rocket 4.3 15:36:23 10° NNE 15:39:37 29° ENE 15:39:37 29° ENE
Iridium 4 Rocket 3.6 15:39:55 72° SSW 15:40:31 84° W 15:46:23 10° N
Cosmos 1553 Rocket 4.1 15:42:22 55° SSE 15:43:42 72° E 15:50:07 10° NNE
SL-14 R/B 4.1 15:45:21 47° NNE 15:45:21 47° NNE 15:48:10 10° NNE
Cosmos 1500 Rocket 4.4 15:41:47 10° N 15:46:01 43° ENE 15:46:16 42° E
ATLAS 2AS CENTAUR R/B 4.3 15:41:07 10° NNW 15:47:06 32° NE 15:53:04 10° E
Meteor 1-18 Rocket 4.0 15:48:30 72° SSW 15:49:07 85° WNW 15:54:49 10° N
SL-16 R/B 2.7 15:43:53 10° NNW 15:49:31 58° ENE 15:51:43 35° ESE
Landsat 5 4.1 15:46:13 10° N 15:49:32 48° NW 15:49:32 48° NW
Cosmos 2219 3.9 15:49:51 38° ESE 15:50:27 39° ESE 15:55:38 10° NE
CZ-2C R/B 3.1 15:53:23 43° W 15:53:23 43° W 15:58:08 10° NNW
CZ-4C R/B 4.4 15:50:52 10° N 15:53:06 37° N 15:53:06 37° N
SL-08 R/B 4.4 15:50:15 10° N 15:56:36 84° E 15:58:10 54° SSE
Cosmos 2237 Rocket 3.1 15:55:33 10° NW 16:00:02 33° W 16:00:02 33° W
In-Cosmos 22 4.0 16:00:39 69° SSW 16:01:23 86° WNW 16:07:04 10° N
Okean 3 Rocket 3.7 15:57:30 10° NNW 16:01:39 68° NW 16:01:39 68° NW
Cosmos 1842 Rocket 4.4 16:03:34 40° WNW 16:03:34 40° WNW 16:07:26 10° N
Sich 1 3.5 15:59:31 10° NNW 16:02:53 51° NW 16:02:53 51° NW
SeaSat 1 2.2 16:04:32 77° SW 16:04:43 79° WSW 16:09:38 10° NNW
Cosmos 2227 Rocket 2.6 16:08:45 45° WSW 16:10:00 54° WNW 16:15:34 10° NNE
BREEZE-M DEB (TANK) 3.4 16:07:43 10° WNW 16:12:47 68° SSW 16:19:53 10° SE
Cosmos 1805 Rocket 3.4 16:10:39 10° N 16:14:47 81° NNW 16:14:47 81° NNW
Cosmos 1745 Rocket 4.1 16:10:57 10° N 16:17:06 69° E 16:19:32 38° SSE
Cosmos 2263 Rocket 2.2 16:17:21 56° WSW 16:18:26 71° WNW 16:24:02 10° NNE
Cosmos 1743 Rocket 3.7 16:15:51 10° N 16:20:07 62° E 16:20:30 59° ESE
Lacrosse 4 Rocket 3.4 16:21:11 18° WNW 16:22:04 19° NW 16:25:01 10° N
Cosmos 2084 3.4 16:19:30 10° NW 16:23:38 71° NE 16:23:53 68° E
CENTAUR R/B 3.2 16:22:59 29° SE 16:24:14 32° ESE 16:29:50 10° NE
Cosmos 1570 Rocket 4.1 16:26:05 54° SSE 16:27:04 67° ESE 16:32:21 10° NNE
Cosmos 1125 Rocket 3.4 16:26:05 10° NNW 16:31:22 71° WSW 16:32:11 59° SSW
Cosmos 1943 4.0 16:27:42 10° NNW 16:33:11 49° ENE 16:38:35 10° SE
Cosmos 1408 Rocket 4.0 16:34:07 10° NNW 16:37:54 45° WNW 16:37:54 45° WNW
Cosmos 1417 Rocket 4.4 16:36:44 47° SSW 16:38:40 82° W 16:44:51 10° N
Resurs 1-4 Rocket 4.3 16:35:35 10° NE 16:39:07 18° E 16:42:40 10° SE
Nimbus 7 Rocket 4.4 16:33:32 10° NNE 16:39:36 81° ESE 16:41:42 43° S
Cosmos 773 Rocket 3.9 16:38:54 54° S 16:40:00 75° ESE 16:45:08 10° NNE
Cosmos 836 Rocket 4.4 16:40:20 56° SSW 16:41:28 89° ESE 16:46:40 10° NNE
PSLV R/B 4.3 16:38:05 10° N 16:41:43 46° WNW 16:41:43 46° WNW
Cosmos 1328 Rocket 4.1 16:42:22 42° SE 16:43:22 52° E 16:47:39 10° NNE
Cosmos 2297 Rocket 4.4 16:41:21 10° W 16:44:42 16° NW 16:48:05 10° N
Spot 1 4.5 16:42:10 10° N 16:46:49 60° WNW 16:47:45 50° WSW
Cosmos 1844 Rocket 3.5 16:47:08 30° SSE 16:49:16 42° ESE 16:54:30 10° NE
ACS3 Solar Sail 2.5 16:44:45 10° N 16:50:14 39° WNW 16:52:13 31° WSW
BlueWalker 3 4.0 16:50:56 14° WNW 16:53:07 22° NNW 16:55:58 10° NE
Cosmos 2082 3.6 16:51:21 46° SW 16:53:07 80° WNW 16:58:47 10° NNE
Cosmos 2150 Rocket 4.5 16:48:59 10° NNW 16:54:24 63° ENE 16:59:10 13° SSE
MSX 3.8 16:54:19 10° NNE 17:00:06 83° WNW 17:02:27 38° SSW
USA 281 4.3 16:57:06 10° SE 17:03:14 45° NE 17:09:25 10° NNW
Cosmos 2208 Rocket 4.0 17:03:13 43° SSW 17:05:01 81° WNW 17:10:19 10° NNE
ADEOS Rocket 3.5 17:00:18 10° NNE 17:08:01 86° ESE 17:12:12 28° SSW
IDEFIX/ARIANE 42P 2.6 17:02:50 10° N 17:08:03 70° WNW 17:09:57 39° SW
S3M 4.2 17:06:54 35° SW 17:09:19 56° WNW 17:15:22 10° N
Atlas Centaur 2 3.7 17:09:49 26° S 17:10:25 27° S 17:16:42 10° ESE
ALOS 3.9 17:07:33 10° NE 17:11:25 27° E 17:14:44 12° SSE
H-2A R/B 3.9 17:07:01 10° NE 17:11:33 27° E 17:16:05 10° SSE
Aureole 2 4.1 17:12:37 78° S 17:12:49 88° ESE 17:16:10 10° NNE
Meteor 1-21 4.3 17:10:18 28° S 17:13:17 72° E 17:18:53 10° NNE
Cosmos 2285 Rocket 4.3 17:09:37 10° NNW 17:15:55 66° ENE 17:22:12 10° SSE
EXPRESS MD2 4.4 17:16:01 18° NNW 17:16:53 22° N 17:19:00 10° ENE
FENGYUN 3A 3.6 17:13:45 10° N 17:19:09 75° WNW 17:21:38 33° SSW
NOSS 2-2 (E) 3.3 17:19:12 45° SSE 17:19:40 49° SE 17:22:40 10° NE
Cosmos 1633 Rocket 2.9 17:16:10 10° NNW 17:20:29 76° W 17:22:06 37° S
NOSS 7 (H) 4.4 17:17:42 10° NNW 17:20:38 66° NE 17:23:52 10° SE
Okean 2 3.7 17:19:33 31° SSE 17:21:04 54° E 17:24:50 10° NNE
Cosmos 2315 Rocket 4.2 17:18:20 31° SW 17:21:18 59° WNW 17:27:34 10° N
Envisat 3.7 17:17:03 10° NNE 17:21:59 50° E 17:25:22 19° SSE
CZ-2D R/B 3.3 17:17:32 10° NNE 17:22:36 39° E 17:27:05 13° SSE
Cosmos 1470 Rocket 3.6 17:18:33 10° N 17:22:56 75° E 17:25:40 22° SSE
NOSS 2-2 (C) 3.8 17:25:33 30° WNW 17:26:05 33° NW 17:28:51 10° NNE
DMSP B5D2-2 4.3 17:23:17 10° SSE 17:28:26 69° ENE 17:33:38 10° N
Cosmos 1900 4.3 17:25:06 10° NNW 17:29:59 85° NE 17:34:51 10° SSE
Cosmos 1953 2.7 17:26:43 10° NNW 17:30:05 36° W 17:30:11 36° W
Cosmos 1844 3.7 17:27:18 29° SSW 17:30:22 82° ESE 17:36:10 10° NNE
BREEZE-M DEB (TANK) 3.5 17:22:42 10° W 17:30:48 47° NNW 17:33:56 10° ENE
MOZ.5/SAFIR/RUBIN 5/SL-8 3.7 17:27:46 18° SSE 17:31:10 87° ENE 17:35:46 10° NNW
SL-16 R/B 3.4 17:28:52 10° NW 17:33:09 22° W 17:33:31 22° WSW
NPP 3.9 17:28:11 10° N 17:33:27 56° WNW 17:36:08 28° SW
Cosmos 2219 4.2 17:31:44 22° WSW 17:34:36 34° NW 17:39:43 10° N
Tiangong -0.6 17:39:05 23° SSE 17:39:05 23° SSE 17:40:39 10° SE
ATLAS 2AS CENTAUR R/B 2.6 17:31:48 10° NW 17:38:33 72° WSW 17:45:19 10° SSE
NOAA 11 4.2 17:36:10 10° N 17:41:38 74° WNW 17:45:01 24° SSW
Cosmos 2344 4.3 17:37:28 14° S 17:44:05 44° ESE 17:50:49 10° NE
CZ-4C R/B 3.5 17:38:35 10° NNW 17:45:31 65° NE 17:54:08 10° SE
Cosmos 1295 Rocket 4.4 17:39:38 10° N 17:45:54 88° W 17:52:02 10° S
Geosat FO 3.8 17:46:09 10° NNE 17:48:49 78° ESE 17:49:31 44° SSW
Cosmos 1867 3.5 17:44:46 10° NW 17:50:13 70° WSW 17:55:37 10° SSE
IRIDIUM 106 4.3 17:53:31 10° N 17:58:46 87° E 18:03:59 10° S
NOSS 2-2 (D) 3.8 17:58:30 23° W 17:59:59 34° NW 18:02:48 10° NNE
Cosmos 1869 Rocket 4.0 17:57:17 10° N 18:01:35 60° E 18:05:51 10° SSE
Cosmos 2263 Rocket 4.3 18:00:27 10° WNW 18:03:23 14° NW 18:06:20 10° N
ADEOS II 2.4 17:59:46 10° NNE 18:04:59 67° ESE 18:10:11 10° S
Cosmos 1538 Rocket 4.3 18:01:27 13° S 18:05:57 65° ESE 18:11:03 10° NNE
H-2A R/B 1.9 18:10:50 10° S 18:14:23 76° WSW 18:18:00 10° NNW
CENTAUR R/B 3.0 18:10:03 16° WSW 18:14:25 49° NW 18:21:13 10° NNE
Cosmos 1515 Rocket 4.2 18:12:34 19° SW 18:15:21 40° WNW 18:19:33 10° N
Cosmos 1943 4.2 18:12:19 10° NW 18:16:51 26° WSW 18:20:33 13° SSW
Cosmos 1441 Rocket 4.0 18:14:47 10° SSE 18:17:57 41° E 18:21:07 10° NNE
Resurs 1-4 Rocket 2.2 18:14:06 10° N 18:19:19 62° WNW 18:23:57 13° SSW
Cosmos 2154 Rocket 4.1 18:18:27 10° NNW 18:24:34 59° W 18:30:37 10° S
Cosmos 2074 Rocket 4.2 18:19:38 10° NNW 18:25:40 51° W 18:31:40 10° SSW
BlueWalker 3 4.3 18:28:39 10° NW 18:31:24 20° N 18:34:09 10° ENE
Cosmos 1833 Rocket 3.8 18:27:17 10° NNW 18:32:45 49° ENE 18:38:11 10° SE
Cosmos 2184 Rocket 4.3 18:27:04 10° NNW 18:32:54 46° W 18:38:44 10° SSW
Cosmos 1844 Rocket 3.7 18:28:46 12° WSW 18:33:14 32° NW 18:38:13 10° N
Okean 3 3.9 18:30:05 13° SW 18:33:17 39° WNW 18:37:03 10° N
Okean 1-7 4.0 18:29:42 10° SSE 18:33:37 45° E 18:37:33 10° NNE
BREEZE-M DEB (TANK) 4.2 18:21:14 10° W 18:36:42 59° N 18:40:26 10° E
Cosmos 1603 4.3 18:39:36 10° NW 18:44:45 35° WSW 18:49:52 10° SSW
Cosmos 44 Rocket 3.4 18:40:03 10° NW 18:45:15 79° WSW 18:50:17 10° SSE
USA 281 3.7 18:41:42 10° S 18:47:45 39° WSW 18:53:52 10° NW
Cosmos 1328 3.4 18:44:49 10° S 18:48:20 80° W 18:51:53 10° N
ALOS 3.1 18:44:17 10° N 18:48:20 33° WNW 18:52:23 10° SW
Cosmos 1733 Rocket 3.3 18:44:03 10° N 18:48:24 75° E 18:52:41 10° SSE
H-2A R/B 2.7 18:45:52 10° N 18:50:58 44° WNW 18:56:04 10° SW
Cosmos 1943 Rocket 3.9 18:48:50 10° SSE 18:53:47 32° ESE 18:58:45 10° NE
Atlas Centaur 2 4.0 18:52:23 10° WSW 18:58:16 25° S 19:04:31 10° SE
Envisat 4.4 18:56:41 10° NNW 19:00:34 23° WNW 19:04:26 10° WSW
